Regional Weather Roundup
Issued by NWS

Home | Current Version | Previous Version | Text Only | Print | Product List | Glossary Off
Versions: 1 2 3 4 5 6 7 8 9 10 11 12 13 14 15 16 17 18 19 20 21 22 23 24 25 26 27 28 29 30 31 32 33 34 35 36 37 38 39 40 41 42 43 44 45 46 47 48 49 50

000
ASUS43 KLOT 280413
RWRIL

ILLINOIS REGIONAL WEATHER ROUNDUP
NATIONAL WEATHER SERVICE CHICAGO/ROMEOVILLE IL
1100 PM CDT THU AUG 27 2015

NOTE: "FAIR" INDICATES FEW OR NO CLOUDS BELOW 12,000 FEET WITH NO
SIGNIFICANT WEATHER AND/OR OBSTRUCTIONS TO VISIBILITY.

* THESE STATIONS ARE NOT UNDER NWS QUALITY CONTROL. THEY ALSO MAY NOT
  REPORT WEATHER SUCH AS PRECIPITATION OR FOG.

ILZ001-002-007-009-015-016-024-280500-
NORTHWEST ILLINOIS

CITY           SKY/WX    TMP DP  RH WIND       PRES   REMARKS
MOLINE         PTCLDY    62  58  86 E3        30.10R
STERLING*      CLEAR     61  57  88 SE8       30.09F
SAVANNA*       PTCLDY    61  57  88 CALM      30.11R
$$

ILZ003-004-008-010-011-017-018-280500-
NORTH CENTRAL ILLINOIS

CITY           SKY/WX    TMP DP  RH WIND       PRES   REMARKS
ROCKFORD       PTCLDY    59  55  87 SE6       30.13F
FREEPORT*      CLEAR     57  56  94 SE7       30.13S
ROCHELLE*      CLEAR     56  54  94 CALM      30.13F
DE KALB*       CLEAR     57  55  93 CALM      30.15S FOG
PERU*          CLEAR     62  57  84 E6        30.12F
$$

ILZ005-006-012>014-019>023-280500-
NORTHEAST ILLINOIS

CITY           SKY/WX    TMP DP  RH WIND       PRES   REMARKS
CHICAGO-OHARE  PTCLDY    60  55  83 CALM      30.14S
CHICAGO-MIDWAY PTCLDY    67  58  72 E5        30.14R
AURORA         CLEAR     57  54  89 CALM      30.15R FOG
LANSING*       PTCLDY    61  55  82 CALM      30.15R
JOLIET*        CLEAR     57  56  95 CALM      30.14S FOG
WAUKEGAN       PTCLDY    56  54  93 CALM      30.13F
DUPAGE AIRPORT CLEAR     59  54  83 CALM      30.14S
KANKAKEE*      CLEAR     59  57  91 CALM      30.14S
WHEELING       CLEAR     59  54  83 CALM      30.15S
MORRIS*        PTCLDY    58  56  91 CALM      30.13S
ROMEOVILLE*    CLEAR     60  55  82 E3        30.14S
NORTHERLY ISL    N/A     64  59  83 SE3         N/A
$$

LMZ740>746-280500-
SOUTHERN LAKE MICHIGAN

STATION/POSITION SKY/WX   TEMP    WIND        PRES    VSBY  WAVE
                          AIR SEA DIR/SP/G                  HT/PER
                          (F)     (DEG/KT/KT) (MB)    (MI)  (FT/S)
SOUTHERN BUOY              66 68  140/  8/ 10 1020.6F         0
WILMETTE HARBOR            64 62  320/  2/  2   N/A           1
HARRISON CRIB              67     110/  9/ 10   N/A
BURNHAM HARBOR             64     120/  3/  6   N/A
CALUMET HARBOR             67     100/  4/  7   N/A
BURNS HARBOR               64      80/  9/ 11 1021.0S
MICHIGAN CITY              62      60/  8/  9   N/A
MICHIGAN CITY 6N           65 71  100/  8/ 12   N/A           1
ST. JOSEPH                 65 71  130/  8/ 10   N/A           1
$$

ILZ025>027-034>036-040-047-049-050-058-095>099-280500-
WEST-CENTRAL ILLINOIS

CITY           SKY/WX    TMP DP  RH WIND       PRES   REMARKS
QUINCY         CLEAR     64  58  80 E6        30.08S
GALESBURG*     CLEAR     60  57  89 SE3       30.09F
MACOMB*        CLEAR     58  57  97 E3        30.11F
JACKSONVILLE*  CLEAR     61  58  88 CALM      30.10S
PITTSFIELD*    CLEAR     60  58  94 CALM      30.10F
$$

ILZ028>032-037-038-041>044-048-051>054-059>061-280500-
CENTRAL ILLINOIS

CITY           SKY/WX    TMP DP  RH WIND       PRES   REMARKS
PONTIAC        CLEAR     59  58  96 CALM      30.14S
BLOOMINGTON    CLEAR     65  59  81 E3        30.14R
DECATUR        CLEAR     61  56  83 CALM      30.12R
PEORIA         CLEAR     64  57  78 E5        30.11F
LACON*         CLEAR     59  58  94 CALM      30.11S
LINCOLN*       CLEAR     62  58  85 CALM      30.12R
SPRINGFIELD    CLEAR     60  57  89 CALM      30.12R
TAYLORVILLE    CLEAR     59  57  94 CALM      30.11S
$$

ILZ033-039-045-046-055>057-062-063-280500-
EAST-CENTRAL ILLINOIS

CITY           SKY/WX    TMP DP  RH WIND       PRES   REMARKS
CHAMPAIGN      CLEAR     63  59  87 E6        30.12R
RANTOUL*       CLEAR     65  60  82 E5        30.12S
MATTOON        CLEAR     61  58  90 CALM      30.10S
PARIS*         FAIR      60  59  96 E3        30.12S
$$

ILZ079-100>102-280500-
SOUTHWEST ILLINOIS

CITY           SKY/WX    TMP DP  RH WIND       PRES   REMARKS
ALTON          CLEAR     59  58  97 E5        30.09F
BELLEVILLE     CLEAR     61  61  99 CALM      30.08S
CAHOKIA*       CLEAR     63  60  90 SE3       30.09R
SPARTA*        CLEAR     62  60  91 CALM      30.10R
$$

ILZ064>066-069>071-074>076-080>082-084>086-088>090-092>094-280500-
SOUTH-CENTRAL ILLINOIS

CITY           SKY/WX    TMP DP  RH WIND       PRES   REMARKS
CARBONDALE     CLEAR     61  60  97 CALM      30.08F
CAIRO*         CLEAR     60  60 100 CALM      30.09S
EFFINGHAM*     CLEAR     60  58  91 CALM      30.11S
MARION         CLEAR     66  63  88 SE5       30.09F
MT. VERNON     CLEAR     57  52  82 CALM      30.10S
CENTRALIA*     CLEAR     59  59 100 CALM      30.08F
SALEM*         CLEAR     61  58  92 CALM      30.10S
METROPOLIS*    CLEAR     60  60 100 CALM      30.10S
$$

ILZ067-068-072-073-078-083-087-091-280500-
SOUTHEAST ILLINOIS

CITY           SKY/WX    TMP DP  RH WIND       PRES   REMARKS
LAWRENCEVILLE  CLEAR     63  59  87 SE3       30.10F
FLORA*         CLEAR     60  57  91 CALM      30.10S
FAIRFIELD*     CLEAR     61  60  94 CALM      30.09S
HARRISBURG*    CLEAR     62  60  94 CALM      30.10S
ROBINSON*      CLEAR     58  56  94 CALM      30.11S
CARMI*         CLEAR     60  60  99 CALM      30.10S
$$

ABBREVIATIONS USED IN REMARKS
   TC - TEMPERATURE IN CELSIUS
  WCI - WIND CHILL INDEX
   HX - HEAT INDEX
  VSB - VISIBILITY
$$



USA.gov is the U.S. government's official web portal to all federal, state and local government web resources and services.